Tracking 19709 objects as of 19-Jun-2019
HD Live streaming from Space Station
objects crossing your sky now

H-2A DEB


H-2A DEB is no longer on orbit


NORAD ID: 34604
Int'l Code: 2009-002L
Perigee: N/A
Apogee: N/A
Inclination: N/A
Period: N/A
Semi major axis: N/A
RCS: N/A
Launch date: January 23, 2009
Source: Japan (JPN)
Launch site: TANEGASHIMA SPACE CENTER (TNSTA)
Decay date: 2014-04-25

Note: This is SATELLITE DEBRIS
aabbcc
Your satellite tracking list
Your tracking list is empty




NASA's NSSDC Master Catalog

Two Line Element Set (TLE):
1 34604U 09002L   14115.02156541  .52344693  29762-5  30259-1 0  9991
2 34604 098.0551 259.6811 0024832 296.6679 200.7264 16.18094586283645
Source of the keplerian elements: AFSPC